Regional Weather Roundup
Issued by NWS

Home | Current Version | Previous Version | Text Only | Print | Product List | Glossary On
Versions: 1 2 3 4 5 6 7 8 9 10 11 12 13 14 15 16 17 18 19 20 21 22 23 24 25 26 27 28 29 30 31 32 33 34 35 36 37 38 39 40 41 42 43 44 45 46 47 48 49 50
000
ASUS45 KTFX 062110
RWRMT
MONTANA REGIONAL WEATHER ROUNDUP
NATIONAL WEATHER SERVICE GREAT FALLS MT
200 PM MST SAT FEB 06 2016

NOTE: "FAIR" INDICATES FEW OR NO CLOUDS BELOW 12000 FEET WITH NO
SIGNIFICANT WEATHER AND/OR OBSTRUCTIONS TO VISIBILITY.

MTZ001>007-043-062200-
WEST OF THE DIVIDE

CITY           SKY/WX    TMP DP  RH WIND       PRES   REMARKS
KALISPELL      CLOUDY    39  23  52 SW21      30.16R WCI  29
MISSOULA       CLOUDY    38  26  62 SW5       30.29F
BUTTE          CLOUDY    36  14  40 W18G29    30.16F WCI  26
MULLAN PASS    CLOUDY    24  21  88 W12G21    30.20S WCI  13
ANACONDA         N/A     37  14  38 W17G25    30.17S WCI  28
DEER LODGE       N/A     37  16  41 W17G23    30.19F WCI  28
HAMILTON         N/A     43  16  33 CALM      30.29S
LIBBY            N/A     45  16  31 CALM      30.25R
$$

MTZ008-052>055-062200-
SOUTHWEST MONTANA

CITY           SKY/WX    TMP DP  RH WIND       PRES   REMARKS
BOZEMAN        CLOUDY    36  25  64 NW14      30.15F WCI  27
DILLON         CLOUDY    41  23  48 W22G30    30.19S
ENNIS          CLOUDY    39  16  38 S15       30.22F WCI  31
THREE FORKS      N/A     43   0  16 NW10      30.13S
$$

MTZ009-010-012-014-046-048-049-054-062200-
EAST SLOPES AND CENTRAL MONTANA

CITY           SKY/WX    TMP DP  RH WIND       PRES   REMARKS
CUT BANK       MOSUNNY   39  17  41 W25G37    29.96R WCI  28
GREAT FALLS    CLOUDY    40  17  39 W28G46    29.99R
MALMSTROM AFB  MOSUNNY   41  14  33 W33G45    30.03R
HELENA         CLOUDY    40  21  46 W24G35    30.14F
CHOTEAU          N/A     39  12  33 W37G48    29.98R WCI  26
$$

MTZ011-013-016-021-045-047-050-051-062200-
NORTH CENTRAL MONTANA

CITY           SKY/WX    TMP DP  RH WIND       PRES   REMARKS
HAVRE          CLOUDY    46  17  31 NW37G44   29.91R
LEWISTOWN      SUNNY     41  16  36 W36G52    29.95R
N BAR RANCH      N/A     41   9  26 NW45G55   29.94R
CHINOOK          N/A     39  30  70 NW24G36   29.91R WCI  28
$$

MTZ017>020-022>027-061-062-062200-
NORTHEAST MONTANA

CITY           SKY/WX    TMP DP  RH WIND       PRES   REMARKS
GLASGOW        CLOUDY    43  23  45 W36G55    29.71F
JORDAN           N/A     45  23  42 W38G52    29.83R
SIDNEY         MOSUNNY   52  19  28 W38G56    29.70S
WOLF POINT     MOSUNNY   47  27  45 W25G37    29.71F
PLENTYWOOD       N/A     45  28  53 W32G48    29.57F
POPLAR           N/A     46  27  46 W22G36    29.70F
$$

MTZ028>42-056>058-062200-
SOUTHCENTRAL AND SOUTHEAST MONTANA

CITY           SKY/WX    TMP DP  RH WIND       PRES   REMARKS
BAKER          CLOUDY    48  12  23 W36G56    29.82R
BILLINGS       CLOUDY    46  15  28 NW35G48   29.98R
LIVINGSTON     CLOUDY    40  21  46 W16G25    30.09R
MILES CITY     PTSUNNY   50  16  25 W35G44    29.85S
FORSYTH          N/A     50  16  25 W21G38    29.88R
LAUREL           N/A     44  16  32 W17       29.99R
ROUNDUP          N/A     48   3  16 W38       29.86R
$$

REGIONAL REPORTS...DAKOTAS

CITY           SKY/WX    TMP DP  RH WIND       PRES   REMARKS
WILLISTON      SUNNY     49  25  39 W30G46    29.64F
MINOT          LGT RAIN  47  31  53 W31G46    29.62R
DICKINSON      CLOUDY    52  20  28 W39G51    29.68F
BEACH            N/A     48  19  32 W33G45    29.79R
CROSBY           N/A     46  28  49 W29G35    29.57F
TIOGA            N/A     43  28  56 W28G39    29.65F
WATFORD CITY     N/A     48  25  40 W26G40    29.68S
BISMARCK       CLOUDY    52  27  38 W14       29.71R
GRAND FORKS    CLOUDY    39  31  72 S8        29.61F
FARGO          CLOUDY    39  30  70 S14       29.67F WCI  31
BUFFALO SD       N/A     56  22  26 NW41G54   29.74S
RAPID CITY     CLOUDY    53  31  42 SE3       29.84F
$$

REGIONAL REPORTS...WYOMING/IDAHO/WASHINGTON

CITY           SKY/WX    TMP DP  RH WIND       PRES   REMARKS
GILLETTE       CLOUDY    42  26  53 SW17      29.91R
SHERIDAN       PTSUNNY   43  21  42 N23       29.90R
BUFFALO WY     CLOUDY    47  19  33 SE14      29.91S
CODY           CLOUDY    48  10  21 W20G38    30.04R
YELLOWSTONE LA   N/A     24  16  71 W10G22    30.22F WCI  14
IDAHO FALLS    CLOUDY    28  22  78 N5        30.39F
SALMON         CLOUDY    27  18  69 W3        30.29F
BOISE          CLOUDY    44  31  60 NW3       30.43F
SPOKANE        CLOUDY    38  31  76 W7        30.36R
$$

REGIONAL REPORTS...ALBERTA

CITY           SKY/WX    TMP DP  RH WIND       PRES   REMARKS
EDMONTON       MOSUNNY   41  16  36 W26G38    29.69R
CALGARY        PTSUNNY   37  18  44 W22G31    29.86R WCI  27
LETHBRIDGE     MOSUNNY   46  12  25 W38G48    29.89R
MEDICINE HAT   PTSUNNY   45  28  53 W17G33    29.84R
WATERTON GATE    N/A     32  21  64 W14G23      N/A  WCI  22
CARDSTON         N/A     37  16  41 W24G35      N/A  WCI  26
MILK RIVER       N/A     45   9  23 W41G52      N/A
$$

REGIONAL REPORTS...SASKATCHEWAN

CITY           SKY/WX    TMP DP  RH WIND       PRES   REMARKS
SWIFT CURRENT  PTSUNNY   39  27  60 NW31G41   29.64R WCI  27
REGINA         LGT RAIN  39  34  81 W30G43    29.47R WCI  27
SASKATOON      MOSUNNY   39  30  70 NW21G32   29.48R WCI  29
CYPRESS HILLS    N/A     36  18  48 NW13G23     N/A  WCI  27
VAL MARIE        N/A     45  28  53 NW23G29     N/A
ROCKGLEN         N/A     36  32  87 NW24G36     N/A  WCI  24
ASSINIBOIA       N/A     39  21  48 W29G40      N/A  WCI  28
$$



USA.gov is the U.S. government's official web portal to all federal, state and local government web resources and services.